CDT,Max TemperatureF,Mean TemperatureF,Min TemperatureF,Max Dew PointF,MeanDew PointF,Min DewpointF,Max Humidity, Mean Humidity, Min Humidity, Max Sea Level PressureIn, Mean Sea Level PressureIn, Min Sea Level PressureIn, Max VisibilityMiles, Mean VisibilityMiles, Min VisibilityMiles, Max Wind SpeedMPH, Mean Wind SpeedMPH, Max Gust SpeedMPH,PrecipitationIn, CloudCover, Events, WindDirDegrees
2013-10-1,69,55,41,45,37,29,84,52,27,30.11,30.01,29.90,10,10,10,16,9,22,0.00,0,,145
2013-10-2,69,56,42,47,40,36,92,62,30,30.01,29.95,29.93,10,10,10,22,9,25,0.00,0,,9
2013-10-3,55,48,42,46,41,37,93,77,62,29.94,29.86,29.80,10,8,2,17,7,21,0.05,6,Rain-Thunderstorm,24
2013-10-4,44,37,30,43,33,26,96,90,83,30.13,29.96,29.79,10,3,0,34,20,48,0.19,7,Rain-Snow-Thunderstorm,334
2013-10-5,46,38,30,30,26,22,82,64,42,30.15,30.11,30.06,10,10,10,39,28,50,0.00,3,,313
2013-10-6,61,50,39,38,32,28,77,55,34,30.23,30.19,30.13,10,10,10,25,18,32,0.00,0,,307
2013-10-7,76,56,36,41,32,19,85,49,12,30.19,30.07,29.93,10,10,10,15,9,21,0.00,0,,236
2013-10-8,77,61,45,41,33,19,71,45,12,29.92,29.83,29.77,10,10,4,15,6,,0.00,0,,250
2013-10-9,61,52,43,44,39,35,77,65,51,29.98,29.91,29.80,10,10,10,21,11,25,0.00,0,,358
2013-10-10,60,48,37,47,41,35,91,79,55,29.97,29.73,29.44,10,10,3,30,5,43,0.41,2,Rain-Thunderstorm,310
2013-10-11,53,47,41,42,38,35,88,74,56,30.05,29.73,29.37,10,9,2,51,29,61,0.76,4,Rain,306
2013-10-12,57,46,36,44,37,31,91,74,52,30.19,30.14,30.06,10,10,10,17,6,23,0.00,4,,169
2013-10-13,63,50,38,47,40,34,88,69,46,30.19,30.10,29.95,10,10,10,24,14,33,0.00,2,Rain-Thunderstorm,152
2013-10-14,55,44,34,52,39,28,93,82,74,30.13,29.92,29.81,10,9,2,33,16,46,0.07,6,Rain-Snow-Thunderstorm,313
2013-10-15,41,35,29,28,27,24,88,73,54,30.26,30.20,30.13,10,10,10,31,23,41,0.00,6,,326
2013-10-16,53,39,25,30,25,15,90,65,24,30.18,30.06,29.97,10,10,10,17,7,22,0.00,0,,291
2013-10-17,42,37,32,32,30,28,96,77,61,30.11,30.06,30.02,10,9,1,18,10,23,0.00,5,Rain-Snow,339
2013-10-18,41,33,25,32,28,23,96,80,54,30.16,30.11,30.07,10,9,1,23,5,32,0.17,4,Snow,300
2013-10-19,59,45,31,33,28,23,80,57,26,30.07,29.97,29.89,10,10,10,25,12,31,0.00,1,,277
2013-10-20,50,44,39,36,32,28,84,67,45,30.10,29.98,29.87,10,10,10,24,11,31,0.00,6,Rain,318
2013-10-21,57,44,32,35,31,28,92,65,34,30.11,30.08,30.04,10,10,10,22,11,36,0.00,5,,286
2013-10-22,62,50,38,36,33,30,80,53,30,30.17,30.12,30.09,10,10,2,20,10,28,0.00,3,,304
2013-10-23,62,48,35,35,32,26,84,58,26,30.24,30.14,30.08,10,10,10,16,9,22,0.00,0,,321
2013-10-24,53,41,29,37,33,27,95,79,51,30.30,30.25,30.22,10,10,7,12,5,9,0.00,0,,163
2013-10-25,69,50,30,42,31,24,95,61,20,30.23,30.15,30.08,10,9,5,17,8,20,0.00,0,,285
2013-10-26,63,48,33,35,32,26,89,59,25,30.33,30.24,30.13,10,10,10,12,8,,0.00,0,,294
2013-10-27,70,53,36,33,27,19,78,41,14,30.12,29.95,29.84,10,10,7,24,11,32,0.00,2,Rain,272
2013-10-28,61,46,30,33,30,23,95,86,23,30.11,30.03,29.89,10,4,1,21,11,25,0.00,7,Snow,58
2013-10-29,38,34,30,34,32,29,96,90,77,30.05,29.97,29.90,10,7,0,10,5,,0.00,8,Fog,137
2013-10-30,52,42,33,36,30,22,95,72,31,29.96,29.83,29.77,10,8,1,24,11,32,0.02,3,Rain-Snow,259
2013-10-31,52,44,35,35,25,20,73,50,29,29.84,29.78,29.74,10,10,10,40,18,56,0.00,3,Rain,295